Back to catalog

STARLINK-5614

AliveCommunicationsVLEO
NORAD 55756·PAYLOAD·🇺🇸 United States

Launched Mar 3, 2023 from Vandenberg Space Force Base

Loading…

Next Passes (next 24 hours)

TLE

FreshSource: CelesTrak SupGP

Epoch: Sep 14, 2026, 20:50 UTC

1 55756C 23028R   26257.86854167 -.00031875  00000+0 -26715-2 0  2575
2 55756  70.0002 127.2837 0002657 270.7248  28.4974 14.98344115    14

Track STARLINK-5614 in real time with AllMySat

Download on the App Store